• En España
  • Lista de países
  • Para 7 días
  • Temperatura del agua
  • Mapa Satelital
  • El tiempo en el mapa
  • Informadores
  • user-avatar
    Iniciar sesión

    Tiempo cada hora Lowech

    Hoy, 15 Noviembre, Jueves

    Tiempo Temperatura Precipitaciones Viento Presión Humedad
    00:00 +10°C° 0.1 mm 1 mps 741 mmHg 79%
    01:00 +10°C° 0.1 mm 1 mps 741 mmHg 80%
    02:00 +9°C° 0 mm 2 mps 741 mmHg 81%
    03:00 +9°C° 0.8 mm 2 mps 741 mmHg 83%
    04:00 +8°C° 0.8 mm 2 mps 741 mmHg 85%
    05:00 +8°C° 0.8 mm 2 mps 741 mmHg 88%
    06:00 +8°C° 0.6 mm 2 mps 741 mmHg 87%
    07:00 +7°C° 0.6 mm 2 mps 741 mmHg 87%
    08:00 +7°C° 0.6 mm 2 mps 741 mmHg 86%
    09:00 +9°C° 0.1 mm 1 mps 742 mmHg 80%
    10:00 +10°C° 0.1 mm 1 mps 742 mmHg 74%
    11:00 +11°C° 0.1 mm 1 mps 742 mmHg 68%
    12:00 +11°C° 0.1 mm 1 mps 742 mmHg 64%
    13:00 +11°C° 0.1 mm 1 mps 741 mmHg 61%
    14:00 +12°C° 0.1 mm 1 mps 741 mmHg 58%
    15:00 +11°C° 0.2 mm 1 mps 741 mmHg 61%
    16:00 +10°C° 0.2 mm 1 mps 741 mmHg 64%
    17:00 +9°C° 0.2 mm 1 mps 741 mmHg 67%
    18:00 +9°C° 0.2 mm 1 mps 741 mmHg 69%
    19:00 +9°C° 0.2 mm 1 mps 742 mmHg 71%
    20:00 +8°C° 0.2 mm 1 mps 742 mmHg 73%
    21:00 +8°C° 0.1 mm 1 mps 742 mmHg 74%
    22:00 +8°C° 0.1 mm 1 mps 742 mmHg 74%
    23:00 +7°C° 0.1 mm 1 mps 742 mmHg 75%

    Mañana, 16 Noviembre, Viernes

    Tiempo Temperatura Precipitaciones Viento Presión Humedad
    00:00 +6°C° 0.2 mm 2 mps 743 mmHg 77%
    01:00 +6°C° 0.2 mm 2 mps 743 mmHg 79%
    02:00 +5°C° 0.2 mm 2 mps 743 mmHg 81%
    03:00 +5°C° 0.2 mm 2 mps 743 mmHg 81%
    04:00 +4°C° 0.2 mm 2 mps 743 mmHg 82%
    05:00 +4°C° 0.2 mm 2 mps 743 mmHg 82%
    06:00 +4°C° 0.1 mm 2 mps 744 mmHg 81%
    07:00 +5°C° 0.1 mm 1 mps 744 mmHg 81%
    08:00 +5°C° 0.1 mm 1 mps 744 mmHg 80%
    09:00 +5°C° 0 mm 2 mps 744 mmHg 75%
    10:00 +5°C° 0 mm 2 mps 745 mmHg 70%
    11:00 +6°C° 0 mm 2 mps 745 mmHg 65%
    12:00 +5°C° 0 mm 3 mps 744 mmHg 65%
    13:00 +5°C° 0 mm 3 mps 744 mmHg 64%
    14:00 +5°C° 0 mm 3 mps 744 mmHg 64%
    15:00 +5°C° 0 mm 3 mps 744 mmHg 67%
    16:00 +5°C° 0 mm 2 mps 744 mmHg 70%
    17:00 +5°C° 0 mm 2 mps 745 mmHg 72%
    18:00 +4°C° 0 mm 2 mps 745 mmHg 74%
    19:00 +3°C° 0 mm 2 mps 745 mmHg 76%
    20:00 +2°C° 0 mm 3 mps 746 mmHg 78%
    21:00 +3°C° 0 mm 2 mps 746 mmHg 78%
    22:00 +2°C° 0 mm 2 mps 746 mmHg 78%
    23:00 +2°C° 0 mm 2 mps 746 mmHg 78%

    Pasado mañana, 17 Noviembre, Sábado

    Tiempo Temperatura Precipitaciones Viento Presión Humedad
    00:00 +2°C° 0 mm 2 mps 746 mmHg 79%
    01:00 +1°C° 0 mm 2 mps 746 mmHg 80%
    02:00 +1°C° 0 mm 2 mps 746 mmHg 81%
    03:00 +1°C° 0 mm 2 mps 746 mmHg 82%
    04:00 +2°C° 0 mm 1 mps 746 mmHg 83%
    05:00 +1°C° 0 mm 1 mps 746 mmHg 84%
    06:00 -1°C° 0 mm 2 mps 746 mmHg 84%
    07:00 +1°C° 0 mm 2 mps 747 mmHg 83%
    08:00 +1°C° 0 mm 2 mps 747 mmHg 82%
    09:00 +2°C° 0 mm 2 mps 747 mmHg 78%
    10:00 +1°C° 0 mm 3 mps 747 mmHg 74%
    11:00 +2°C° 0 mm 3 mps 747 mmHg 70%
    12:00 +2°C° 0 mm 3 mps 746 mmHg 70%
    13:00 +3°C° 0 mm 3 mps 746 mmHg 69%
    14:00 +3°C° 0 mm 3 mps 746 mmHg 69%
    15:00 +2°C° 0 mm 3 mps 746 mmHg 73%
    16:00 +2°C° 0 mm 3 mps 746 mmHg 76%
    17:00 +1°C° 0 mm 3 mps 746 mmHg 80%
    18:00 +2°C° 0 mm 2 mps 746 mmHg 81%
    19:00 +2°C° 0 mm 2 mps 746 mmHg 83%
    20:00 +2°C° 0 mm 2 mps 746 mmHg 84%
    21:00 +2°C° 0 mm 2 mps 746 mmHg 84%
    22:00 +2°C° 0 mm 2 mps 746 mmHg 83%
    23:00 +2°C° 0 mm 2 mps 746 mmHg 83%

    18 Noviembre, Domingo

    Tiempo Temperatura Precipitaciones Viento Presión Humedad
    00:00 +1°C° 0 mm 2 mps 746 mmHg 82%
    01:00 +1°C° 0 mm 2 mps 746 mmHg 81%
    02:00 +1°C° 0 mm 2 mps 745 mmHg 80%
    03:00 +1°C° 0 mm 2 mps 745 mmHg 81%
    04:00 +1°C° 0 mm 1 mps 745 mmHg 81%
    05:00 +1°C° 0 mm 1 mps 744 mmHg 81%
    06:00 +1°C° 0 mm 1 mps 744 mmHg 80%
    07:00 +1°C° 0 mm 1 mps 744 mmHg 78%
    08:00 +1°C° 0 mm 1 mps 744 mmHg 77%
    09:00 +3°C° 0 mm 1 mps 744 mmHg 72%
    10:00 +4°C° 0 mm 1 mps 744 mmHg 67%
    11:00 +4°C° 0 mm 2 mps 743 mmHg 61%
    12:00 +4°C° 0 mm 2 mps 743 mmHg 60%
    13:00 +5°C° 0 mm 2 mps 742 mmHg 59%
    14:00 +5°C° 0 mm 2 mps 741 mmHg 57%
    15:00 +5°C° 0 mm 2 mps 741 mmHg 61%
    16:00 +4°C° 0 mm 2 mps 740 mmHg 64%
    17:00 +4°C° 0 mm 1 mps 740 mmHg 67%
    18:00 +4°C° 0 mm 1 mps 740 mmHg 69%
    19:00 +3°C° 0 mm 1 mps 739 mmHg 71%
    20:00 +3°C° 0 mm 1 mps 739 mmHg 73%
    21:00 +3°C° 0 mm 1 mps 739 mmHg 73%
    22:00 +3°C° 0 mm 1 mps 739 mmHg 74%
    23:00 +3°C° 0 mm 1 mps 738 mmHg 74%

    19 Noviembre, Lunes

    Tiempo Temperatura Precipitaciones Viento Presión Humedad
    00:00 +3°C° 0 mm 1 mps 738 mmHg 74%
    01:00 +3°C° 0 mm 1 mps 737 mmHg 74%
    02:00 +3°C° 0 mm 1 mps 737 mmHg 74%
    03:00 +3°C° 0 mm 1 mps 737 mmHg 74%
    04:00 +3°C° 0 mm 1 mps 736 mmHg 74%
    05:00 +3°C° 0 mm 1 mps 736 mmHg 75%
    06:00 +3°C° 0 mm 1 mps 736 mmHg 75%
    07:00 +3°C° 0 mm 1 mps 736 mmHg 75%
    08:00 +3°C° 0 mm 1 mps 736 mmHg 75%
    09:00 +4°C° 0 mm 1 mps 736 mmHg 71%
    10:00 +4°C° 0 mm 2 mps 736 mmHg 67%
    11:00 +6°C° 0 mm 2 mps 736 mmHg 63%
    12:00 +6°C° 0 mm 2 mps 736 mmHg 63%
    13:00 +7°C° 0 mm 2 mps 736 mmHg 63%
    14:00 +7°C° 0 mm 3 mps 736 mmHg 64%
    15:00 +7°C° 0 mm 2 mps 736 mmHg 68%
    16:00 +6°C° 0 mm 2 mps 735 mmHg 73%
    17:00 +5°C° 0 mm 2 mps 735 mmHg 78%
    18:00 +5°C° 0 mm 2 mps 736 mmHg 81%
    19:00 +5°C° 0 mm 2 mps 736 mmHg 84%
    20:00 +5°C° 0 mm 2 mps 736 mmHg 86%
    21:00 +6°C° 0 mm 1 mps 736 mmHg 88%
    22:00 +5°C° 0 mm 1 mps 736 mmHg 89%
    23:00 +5°C° 0 mm 1 mps 737 mmHg 91%

    20 Noviembre, Martes

    Tiempo Temperatura Precipitaciones Viento Presión Humedad
    00:00 +5°C° 0 mm 1 mps 737 mmHg 91%
    01:00 +4°C° 0 mm 0 mps 737 mmHg 92%
    02:00 +3°C° 0 mm 0 mps 737 mmHg 93%
    03:00 +3°C° 0 mm 0 mps 737 mmHg 94%
    04:00 +3°C° 0 mm 0 mps 737 mmHg 94%
    05:00 +4°C° 0 mm 0 mps 736 mmHg 95%
    06:00 +5°C° 0 mm 1 mps 736 mmHg 94%
    07:00 +5°C° 0 mm 1 mps 736 mmHg 94%
    08:00 +5°C° 0 mm 2 mps 736 mmHg 94%
    09:00 +7°C° 0 mm 2 mps 736 mmHg 87%
    10:00 +9°C° 0 mm 3 mps 736 mmHg 80%
    11:00 +10°C° 0 mm 3 mps 736 mmHg 73%
    12:00 +11°C° 0.2 mm 3 mps 735 mmHg 74%
    13:00 +11°C° 0.2 mm 3 mps 735 mmHg 75%
    14:00 +12°C° 0.2 mm 2 mps 735 mmHg 75%
    15:00 +12°C° 0.5 mm 2 mps 734 mmHg 79%
    16:00 +10°C° 0.5 mm 3 mps 734 mmHg 82%
    17:00 +10°C° 0.5 mm 3 mps 734 mmHg 86%
    18:00 +10°C° 0.2 mm 3 mps 734 mmHg 86%
    19:00 +10°C° 0.2 mm 3 mps 734 mmHg 87%
    20:00 +10°C° 0.2 mm 3 mps 733 mmHg 87%
    21:00 +11°C° 0.3 mm 3 mps 733 mmHg 87%
    22:00 +11°C° 0.3 mm 3 mps 733 mmHg 88%
    23:00 +11°C° 0.3 mm 3 mps 732 mmHg 88%
    Mostrar más